Index of /20260506/WXO-DD/model_rdps/10km/00/048
Name Last modified Size Description
Parent Directory -
20260506T00Z_MSC_RDPS_AbsoluteVorticity_IsbL-0250_RLatLon0.09_PT048H.grib2 2026-05-06 02:55 591K
20260506T00Z_MSC_RDPS_AbsoluteVorticity_IsbL-0500_RLatLon0.09_PT048H.grib2 2026-05-06 02:55 555K
20260506T00Z_MSC_RDPS_AbsoluteVorticity_IsbL-0700_RLatLon0.09_PT048H.grib2 2026-05-06 02:55 757K
20260506T00Z_MSC_RDPS_AbsoluteVorticity_IsbL-0850_RLatLon0.09_PT048H.grib2 2026-05-06 02:55 773K
20260506T00Z_MSC_RDPS_AirTemp_AGL-120m_RLatLon0.09_PT048H.grib2 2026-05-06 02:55 372K
20260506T00Z_MSC_RDPS_AirTemp_AGL-2m_RLatLon0.09_PT048H.grib2 2026-05-06 02:55 625K
20260506T00Z_MSC_RDPS_AirTemp_AGL-40m_RLatLon0.09_PT048H.grib2 2026-05-06 02:55 383K
20260506T00Z_MSC_RDPS_AirTemp_AGL-80m_RLatLon0.09_PT048H.grib2 2026-05-06 02:55 376K
20260506T00Z_MSC_RDPS_AirTemp_IsbL-0001_RLatLon0.09_PT048H.grib2 2026-05-06 02:55 307K
20260506T00Z_MSC_RDPS_AirTemp_IsbL-0005_RLatLon0.09_PT048H.grib2 2026-05-06 02:55 286K
20260506T00Z_MSC_RDPS_AirTemp_IsbL-0010_RLatLon0.09_PT048H.grib2 2026-05-06 02:55 390K
20260506T00Z_MSC_RDPS_AirTemp_IsbL-0020_RLatLon0.09_PT048H.grib2 2026-05-06 02:55 319K
20260506T00Z_MSC_RDPS_AirTemp_IsbL-0030_RLatLon0.09_PT048H.grib2 2026-05-06 02:55 336K
20260506T00Z_MSC_RDPS_AirTemp_IsbL-0050_RLatLon0.09_PT048H.grib2 2026-05-06 02:55 309K
20260506T00Z_MSC_RDPS_AirTemp_IsbL-0100_RLatLon0.09_PT048H.grib2 2026-05-06 02:55 420K
20260506T00Z_MSC_RDPS_AirTemp_IsbL-0150_RLatLon0.09_PT048H.grib2 2026-05-06 02:55 409K
20260506T00Z_MSC_RDPS_AirTemp_IsbL-0175_RLatLon0.09_PT048H.grib2 2026-05-06 02:55 402K
20260506T00Z_MSC_RDPS_AirTemp_IsbL-0200_RLatLon0.09_PT048H.grib2 2026-05-06 02:55 408K
20260506T00Z_MSC_RDPS_AirTemp_IsbL-0225_RLatLon0.09_PT048H.grib2 2026-05-06 02:55 409K
20260506T00Z_MSC_RDPS_AirTemp_IsbL-0250_RLatLon0.09_PT048H.grib2 2026-05-06 02:55 416K
20260506T00Z_MSC_RDPS_AirTemp_IsbL-0275_RLatLon0.09_PT048H.grib2 2026-05-06 02:55 397K
20260506T00Z_MSC_RDPS_AirTemp_IsbL-0300_RLatLon0.09_PT048H.grib2 2026-05-06 02:55 404K
20260506T00Z_MSC_RDPS_AirTemp_IsbL-0350_RLatLon0.09_PT048H.grib2 2026-05-06 02:55 417K
20260506T00Z_MSC_RDPS_AirTemp_IsbL-0400_RLatLon0.09_PT048H.grib2 2026-05-06 02:55 419K
20260506T00Z_MSC_RDPS_AirTemp_IsbL-0450_RLatLon0.09_PT048H.grib2 2026-05-06 02:55 429K
20260506T00Z_MSC_RDPS_AirTemp_IsbL-0500_RLatLon0.09_PT048H.grib2 2026-05-06 02:55 406K
20260506T00Z_MSC_RDPS_AirTemp_IsbL-0550_RLatLon0.09_PT048H.grib2 2026-05-06 02:55 423K
20260506T00Z_MSC_RDPS_AirTemp_IsbL-0600_RLatLon0.09_PT048H.grib2 2026-05-06 02:55 440K
20260506T00Z_MSC_RDPS_AirTemp_IsbL-0650_RLatLon0.09_PT048H.grib2 2026-05-06 02:55 457K
20260506T00Z_MSC_RDPS_AirTemp_IsbL-0700_RLatLon0.09_PT048H.grib2 2026-05-06 02:55 482K
20260506T00Z_MSC_RDPS_AirTemp_IsbL-0750_RLatLon0.09_PT048H.grib2 2026-05-06 02:55 516K
20260506T00Z_MSC_RDPS_AirTemp_IsbL-0800_RLatLon0.09_PT048H.grib2 2026-05-06 02:55 445K
20260506T00Z_MSC_RDPS_AirTemp_IsbL-0850_RLatLon0.09_PT048H.grib2 2026-05-06 02:55 491K
20260506T00Z_MSC_RDPS_AirTemp_IsbL-0875_RLatLon0.09_PT048H.grib2 2026-05-06 02:55 511K
20260506T00Z_MSC_RDPS_AirTemp_IsbL-0900_RLatLon0.09_PT048H.grib2 2026-05-06 02:55 523K
20260506T00Z_MSC_RDPS_AirTemp_IsbL-0925_RLatLon0.09_PT048H.grib2 2026-05-06 02:55 524K
20260506T00Z_MSC_RDPS_AirTemp_IsbL-0950_RLatLon0.09_PT048H.grib2 2026-05-06 02:55 521K
20260506T00Z_MSC_RDPS_AirTemp_IsbL-0970_RLatLon0.09_PT048H.grib2 2026-05-06 02:55 515K
20260506T00Z_MSC_RDPS_AirTemp_IsbL-0985_RLatLon0.09_PT048H.grib2 2026-05-06 02:55 505K
20260506T00Z_MSC_RDPS_AirTemp_IsbL-1000_RLatLon0.09_PT048H.grib2 2026-05-06 02:55 494K
20260506T00Z_MSC_RDPS_AirTemp_IsbL-1015_RLatLon0.09_PT048H.grib2 2026-05-06 02:55 507K
20260506T00Z_MSC_RDPS_Albedo_Sfc_RLatLon0.09_PT048H.grib2 2026-05-06 02:55 155K
20260506T00Z_MSC_RDPS_CAPE_Sfc_RLatLon0.09_PT048H.grib2 2026-05-06 02:55 1.7M
20260506T00Z_MSC_RDPS_CIN_Sfc_RLatLon0.09_PT048H.grib2 2026-05-06 02:55 1.4M
20260506T00Z_MSC_RDPS_CloudWater_EAtm_RLatLon0.09_PT048H.grib2 2026-05-06 02:55 227K
20260506T00Z_MSC_RDPS_ConvectivePrecip-Accum_Sfc_RLatLon0.09_PT048H.grib2 2026-05-06 02:55 1.0M
20260506T00Z_MSC_RDPS_DewPointDepression_AGL-2m_RLatLon0.09_PT048H.grib2 2026-05-06 02:55 417K
20260506T00Z_MSC_RDPS_DewPointDepression_IsbL-0001_RLatLon0.09_PT048H.grib2 2026-05-06 02:55 193
20260506T00Z_MSC_RDPS_DewPointDepression_IsbL-0005_RLatLon0.09_PT048H.grib2 2026-05-06 02:55 193
20260506T00Z_MSC_RDPS_DewPointDepression_IsbL-0010_RLatLon0.09_PT048H.grib2 2026-05-06 02:55 193
20260506T00Z_MSC_RDPS_DewPointDepression_IsbL-0020_RLatLon0.09_PT048H.grib2 2026-05-06 02:55 193
20260506T00Z_MSC_RDPS_DewPointDepression_IsbL-0030_RLatLon0.09_PT048H.grib2 2026-05-06 02:55 193
20260506T00Z_MSC_RDPS_DewPointDepression_IsbL-0050_RLatLon0.09_PT048H.grib2 2026-05-06 02:55 80K
20260506T00Z_MSC_RDPS_DewPointDepression_IsbL-0100_RLatLon0.09_PT048H.grib2 2026-05-06 02:55 112K
20260506T00Z_MSC_RDPS_DewPointDepression_IsbL-0150_RLatLon0.09_PT048H.grib2 2026-05-06 02:55 141K
20260506T00Z_MSC_RDPS_DewPointDepression_IsbL-0175_RLatLon0.09_PT048H.grib2 2026-05-06 02:55 175K
20260506T00Z_MSC_RDPS_DewPointDepression_IsbL-0200_RLatLon0.09_PT048H.grib2 2026-05-06 02:55 215K
20260506T00Z_MSC_RDPS_DewPointDepression_IsbL-0225_RLatLon0.09_PT048H.grib2 2026-05-06 02:55 247K
20260506T00Z_MSC_RDPS_DewPointDepression_IsbL-0250_RLatLon0.09_PT048H.grib2 2026-05-06 02:55 295K
20260506T00Z_MSC_RDPS_DewPointDepression_IsbL-0275_RLatLon0.09_PT048H.grib2 2026-05-06 02:55 306K
20260506T00Z_MSC_RDPS_DewPointDepression_IsbL-0300_RLatLon0.09_PT048H.grib2 2026-05-06 02:55 324K
20260506T00Z_MSC_RDPS_DewPointDepression_IsbL-0350_RLatLon0.09_PT048H.grib2 2026-05-06 02:55 330K
20260506T00Z_MSC_RDPS_DewPointDepression_IsbL-0400_RLatLon0.09_PT048H.grib2 2026-05-06 02:55 339K
20260506T00Z_MSC_RDPS_DewPointDepression_IsbL-0450_RLatLon0.09_PT048H.grib2 2026-05-06 02:55 344K
20260506T00Z_MSC_RDPS_DewPointDepression_IsbL-0500_RLatLon0.09_PT048H.grib2 2026-05-06 02:55 354K
20260506T00Z_MSC_RDPS_DewPointDepression_IsbL-0550_RLatLon0.09_PT048H.grib2 2026-05-06 02:55 367K
20260506T00Z_MSC_RDPS_DewPointDepression_IsbL-0600_RLatLon0.09_PT048H.grib2 2026-05-06 02:55 379K
20260506T00Z_MSC_RDPS_DewPointDepression_IsbL-0650_RLatLon0.09_PT048H.grib2 2026-05-06 02:55 383K
20260506T00Z_MSC_RDPS_DewPointDepression_IsbL-0700_RLatLon0.09_PT048H.grib2 2026-05-06 02:55 396K
20260506T00Z_MSC_RDPS_DewPointDepression_IsbL-0750_RLatLon0.09_PT048H.grib2 2026-05-06 02:55 420K
20260506T00Z_MSC_RDPS_DewPointDepression_IsbL-0800_RLatLon0.09_PT048H.grib2 2026-05-06 02:55 453K
20260506T00Z_MSC_RDPS_DewPointDepression_IsbL-0850_RLatLon0.09_PT048H.grib2 2026-05-06 02:55 482K
20260506T00Z_MSC_RDPS_DewPointDepression_IsbL-0875_RLatLon0.09_PT048H.grib2 2026-05-06 02:55 479K
20260506T00Z_MSC_RDPS_DewPointDepression_IsbL-0900_RLatLon0.09_PT048H.grib2 2026-05-06 02:55 472K
20260506T00Z_MSC_RDPS_DewPointDepression_IsbL-0925_RLatLon0.09_PT048H.grib2 2026-05-06 02:55 461K
20260506T00Z_MSC_RDPS_DewPointDepression_IsbL-0950_RLatLon0.09_PT048H.grib2 2026-05-06 02:55 446K
20260506T00Z_MSC_RDPS_DewPointDepression_IsbL-0970_RLatLon0.09_PT048H.grib2 2026-05-06 02:55 437K
20260506T00Z_MSC_RDPS_DewPointDepression_IsbL-0985_RLatLon0.09_PT048H.grib2 2026-05-06 02:55 434K
20260506T00Z_MSC_RDPS_DewPointDepression_IsbL-1000_RLatLon0.09_PT048H.grib2 2026-05-06 02:55 431K
20260506T00Z_MSC_RDPS_DewPointDepression_IsbL-1015_RLatLon0.09_PT048H.grib2 2026-05-06 02:55 420K
20260506T00Z_MSC_RDPS_DewPoint_AGL-2m_RLatLon0.09_PT048H.grib2 2026-05-06 02:55 401K
20260506T00Z_MSC_RDPS_DownwardLongwaveRadiationFlux-Accum_Sfc_RLatLon0.09_PT048H.grib2 2026-05-06 02:55 374K
20260506T00Z_MSC_RDPS_DownwardShortwaveRadiationFlux-Accum_NTAtm_RLatLon0.09_PT048H.grib2 2026-05-06 02:55 144K
20260506T00Z_MSC_RDPS_DownwardShortwaveRadiationFlux-Accum_Sfc_RLatLon0.09_PT048H.grib2 2026-05-06 02:55 571K
20260506T00Z_MSC_RDPS_FreezingRain-Accum12h_Sfc_RLatLon0.09_PT048H.grib2 2026-05-06 02:55 77K
20260506T00Z_MSC_RDPS_FreezingRain-Accum1h_Sfc_RLatLon0.09_PT048H.grib2 2026-05-06 02:55 23K
20260506T00Z_MSC_RDPS_FreezingRain-Accum24h_Sfc_RLatLon0.09_PT048H.grib2 2026-05-06 02:55 126K
20260506T00Z_MSC_RDPS_FreezingRain-Accum3h_Sfc_RLatLon0.09_PT048H.grib2 2026-05-06 02:55 29K
20260506T00Z_MSC_RDPS_FreezingRain-Accum6h_Sfc_RLatLon0.09_PT048H.grib2 2026-05-06 02:55 41K
20260506T00Z_MSC_RDPS_FreezingRain-Accum_Sfc_RLatLon0.09_PT048H.grib2 2026-05-06 02:55 177K
20260506T00Z_MSC_RDPS_GeopotentialHeight_IsbL-0001_RLatLon0.09_PT048H.grib2 2026-05-06 02:55 337K
20260506T00Z_MSC_RDPS_GeopotentialHeight_IsbL-0005_RLatLon0.09_PT048H.grib2 2026-05-06 02:55 333K
20260506T00Z_MSC_RDPS_GeopotentialHeight_IsbL-0010_RLatLon0.09_PT048H.grib2 2026-05-06 02:55 301K
20260506T00Z_MSC_RDPS_GeopotentialHeight_IsbL-0020_RLatLon0.09_PT048H.grib2 2026-05-06 02:55 301K
20260506T00Z_MSC_RDPS_GeopotentialHeight_IsbL-0030_RLatLon0.09_PT048H.grib2 2026-05-06 02:55 398K
20260506T00Z_MSC_RDPS_GeopotentialHeight_IsbL-0050_RLatLon0.09_PT048H.grib2 2026-05-06 02:55 303K
20260506T00Z_MSC_RDPS_GeopotentialHeight_IsbL-0100_RLatLon0.09_PT048H.grib2 2026-05-06 02:55 284K
20260506T00Z_MSC_RDPS_GeopotentialHeight_IsbL-0150_RLatLon0.09_PT048H.grib2 2026-05-06 02:55 226K
20260506T00Z_MSC_RDPS_GeopotentialHeight_IsbL-0175_RLatLon0.09_PT048H.grib2 2026-05-06 02:55 228K
20260506T00Z_MSC_RDPS_GeopotentialHeight_IsbL-0200_RLatLon0.09_PT048H.grib2 2026-05-06 02:55 263K
20260506T00Z_MSC_RDPS_GeopotentialHeight_IsbL-0225_RLatLon0.09_PT048H.grib2 2026-05-06 02:55 265K
20260506T00Z_MSC_RDPS_GeopotentialHeight_IsbL-0250_RLatLon0.09_PT048H.grib2 2026-05-06 02:55 266K
20260506T00Z_MSC_RDPS_GeopotentialHeight_IsbL-0275_RLatLon0.09_PT048H.grib2 2026-05-06 02:55 264K
20260506T00Z_MSC_RDPS_GeopotentialHeight_IsbL-0300_RLatLon0.09_PT048H.grib2 2026-05-06 02:55 233K
20260506T00Z_MSC_RDPS_GeopotentialHeight_IsbL-0350_RLatLon0.09_PT048H.grib2 2026-05-06 02:55 230K
20260506T00Z_MSC_RDPS_GeopotentialHeight_IsbL-0400_RLatLon0.09_PT048H.grib2 2026-05-06 02:55 226K
20260506T00Z_MSC_RDPS_GeopotentialHeight_IsbL-0450_RLatLon0.09_PT048H.grib2 2026-05-06 02:55 293K
20260506T00Z_MSC_RDPS_GeopotentialHeight_IsbL-0500_RLatLon0.09_PT048H.grib2 2026-05-06 02:55 289K
20260506T00Z_MSC_RDPS_GeopotentialHeight_IsbL-0550_RLatLon0.09_PT048H.grib2 2026-05-06 02:55 285K
20260506T00Z_MSC_RDPS_GeopotentialHeight_IsbL-0600_RLatLon0.09_PT048H.grib2 2026-05-06 02:55 281K
20260506T00Z_MSC_RDPS_GeopotentialHeight_IsbL-0650_RLatLon0.09_PT048H.grib2 2026-05-06 02:55 252K
20260506T00Z_MSC_RDPS_GeopotentialHeight_IsbL-0700_RLatLon0.09_PT048H.grib2 2026-05-06 02:55 333K
20260506T00Z_MSC_RDPS_GeopotentialHeight_IsbL-0750_RLatLon0.09_PT048H.grib2 2026-05-06 02:55 334K
20260506T00Z_MSC_RDPS_GeopotentialHeight_IsbL-0800_RLatLon0.09_PT048H.grib2 2026-05-06 02:55 371K
20260506T00Z_MSC_RDPS_GeopotentialHeight_IsbL-0850_RLatLon0.09_PT048H.grib2 2026-05-06 02:55 379K
20260506T00Z_MSC_RDPS_GeopotentialHeight_IsbL-0875_RLatLon0.09_PT048H.grib2 2026-05-06 02:55 383K
20260506T00Z_MSC_RDPS_GeopotentialHeight_IsbL-0900_RLatLon0.09_PT048H.grib2 2026-05-06 02:55 387K
20260506T00Z_MSC_RDPS_GeopotentialHeight_IsbL-0925_RLatLon0.09_PT048H.grib2 2026-05-06 02:55 363K
20260506T00Z_MSC_RDPS_GeopotentialHeight_IsbL-0950_RLatLon0.09_PT048H.grib2 2026-05-06 02:55 366K
20260506T00Z_MSC_RDPS_GeopotentialHeight_IsbL-0970_RLatLon0.09_PT048H.grib2 2026-05-06 02:55 371K
20260506T00Z_MSC_RDPS_GeopotentialHeight_IsbL-0985_RLatLon0.09_PT048H.grib2 2026-05-06 02:55 380K
20260506T00Z_MSC_RDPS_GeopotentialHeight_IsbL-1000_RLatLon0.09_PT048H.grib2 2026-05-06 02:55 394K
20260506T00Z_MSC_RDPS_GeopotentialHeight_IsbL-1015_RLatLon0.09_PT048H.grib2 2026-05-06 02:55 412K
20260506T00Z_MSC_RDPS_HighLowPressure_MSL_RLatLon0.09_PT048H.json 2026-05-06 02:45 22K
20260506T00Z_MSC_RDPS_Humidex_Sfc_RLatLon0.09_PT048H.grib2 2026-05-06 02:55 2.4M
20260506T00Z_MSC_RDPS_IcePellets-Accum12h_Sfc_RLatLon0.09_PT048H.grib2 2026-05-06 02:55 10K
20260506T00Z_MSC_RDPS_IcePellets-Accum1h_Sfc_RLatLon0.09_PT048H.grib2 2026-05-06 02:55 3.8K
20260506T00Z_MSC_RDPS_IcePellets-Accum24h_Sfc_RLatLon0.09_PT048H.grib2 2026-05-06 02:55 15K
20260506T00Z_MSC_RDPS_IcePellets-Accum3h_Sfc_RLatLon0.09_PT048H.grib2 2026-05-06 02:55 4.4K
20260506T00Z_MSC_RDPS_IcePellets-Accum6h_Sfc_RLatLon0.09_PT048H.grib2 2026-05-06 02:55 6.0K
20260506T00Z_MSC_RDPS_IcePellets-Accum_Sfc_RLatLon0.09_PT048H.grib2 2026-05-06 02:55 26K
20260506T00Z_MSC_RDPS_KIndex_Sfc_RLatLon0.09_PT048H.grib2 2026-05-06 02:55 2.5M
20260506T00Z_MSC_RDPS_LatentHeatNetFlux_Sfc_RLatLon0.09_PT048H.grib2 2026-05-06 02:55 361K
20260506T00Z_MSC_RDPS_LiftedIndex-MU-VT_IsbL-0500_RLatLon0.09_PT048H.grib2 2026-05-06 02:55 2.4M
20260506T00Z_MSC_RDPS_NetLongwaveRadiationFlux-Accum_Sfc_RLatLon0.09_PT048H.grib2 2026-05-06 02:55 548K
20260506T00Z_MSC_RDPS_NetShortwaveRadiationFlux-Accum_Sfc_RLatLon0.09_PT048H.grib2 2026-05-06 02:55 568K
20260506T00Z_MSC_RDPS_PlanetaryBoundaryLayerHeight_Sfc_RLatLon0.09_PT048H.grib2 2026-05-06 02:55 1.0M
20260506T00Z_MSC_RDPS_Precip-Accum12h_Sfc_RLatLon0.09_PT048H.grib2 2026-05-06 02:55 1.8M
20260506T00Z_MSC_RDPS_Precip-Accum1h_Sfc_RLatLon0.09_PT048H.grib2 2026-05-06 02:55 1.2M
20260506T00Z_MSC_RDPS_Precip-Accum24h_Sfc_RLatLon0.09_PT048H.grib2 2026-05-06 02:55 1.9M
20260506T00Z_MSC_RDPS_Precip-Accum3h_Sfc_RLatLon0.09_PT048H.grib2 2026-05-06 02:55 1.3M
20260506T00Z_MSC_RDPS_Precip-Accum6h_Sfc_RLatLon0.09_PT048H.grib2 2026-05-06 02:55 1.5M
20260506T00Z_MSC_RDPS_Precip-Accum_Sfc_RLatLon0.09_PT048H.grib2 2026-05-06 02:55 2.1M
20260506T00Z_MSC_RDPS_PrecipRate_Sfc_RLatLon0.09_PT048H.grib2 2026-05-06 02:55 169K
20260506T00Z_MSC_RDPS_PrecipType-Instant_Sfc_RLatLon0.09_PT048H.grib2 2026-05-06 02:55 568K
20260506T00Z_MSC_RDPS_Pressure-Trend3h_Sfc_RLatLon0.09_PT048H.grib2 2026-05-06 02:55 1.2M
20260506T00Z_MSC_RDPS_Pressure_MSL_RLatLon0.09_PT048H.grib2 2026-05-06 02:55 433K
20260506T00Z_MSC_RDPS_Pressure_PVU-1.5_RLatLon0.09_PT048H.grib2 2026-05-06 02:55 2.5M
20260506T00Z_MSC_RDPS_Pressure_PVU-1_RLatLon0.09_PT048H.grib2 2026-05-06 02:55 2.4M
20260506T00Z_MSC_RDPS_Pressure_PVU-2_RLatLon0.09_PT048H.grib2 2026-05-06 02:55 2.4M
20260506T00Z_MSC_RDPS_Pressure_Sfc_RLatLon0.09_PT048H.grib2 2026-05-06 02:55 497K
20260506T00Z_MSC_RDPS_RadiativeTemp_Sfc_RLatLon0.09_PT048H.grib2 2026-05-06 02:55 316K
20260506T00Z_MSC_RDPS_Rain-Accum12h_Sfc_RLatLon0.09_PT048H.grib2 2026-05-06 02:55 1.2M
20260506T00Z_MSC_RDPS_Rain-Accum1h_Sfc_RLatLon0.09_PT048H.grib2 2026-05-06 02:55 539K
20260506T00Z_MSC_RDPS_Rain-Accum24h_Sfc_RLatLon0.09_PT048H.grib2 2026-05-06 02:55 1.4M
20260506T00Z_MSC_RDPS_Rain-Accum3h_Sfc_RLatLon0.09_PT048H.grib2 2026-05-06 02:55 706K
20260506T00Z_MSC_RDPS_Rain-Accum6h_Sfc_RLatLon0.09_PT048H.grib2 2026-05-06 02:55 1.0M
20260506T00Z_MSC_RDPS_Rain-Accum_Sfc_RLatLon0.09_PT048H.grib2 2026-05-06 02:55 1.7M
20260506T00Z_MSC_RDPS_RelativeHumidity_AGL-2m_RLatLon0.09_PT048H.grib2 2026-05-06 02:55 1.0M
20260506T00Z_MSC_RDPS_RelativeHumidity_IsbL-0010_RLatLon0.09_PT048H.grib2 2026-05-06 02:55 580K
20260506T00Z_MSC_RDPS_RelativeHumidity_IsbL-0020_RLatLon0.09_PT048H.grib2 2026-05-06 02:55 653K
20260506T00Z_MSC_RDPS_RelativeHumidity_IsbL-0030_RLatLon0.09_PT048H.grib2 2026-05-06 02:55 601K
20260506T00Z_MSC_RDPS_RelativeHumidity_IsbL-0050_RLatLon0.09_PT048H.grib2 2026-05-06 02:55 355K
20260506T00Z_MSC_RDPS_RelativeHumidity_IsbL-0100_RLatLon0.09_PT048H.grib2 2026-05-06 02:55 277K
20260506T00Z_MSC_RDPS_RelativeHumidity_IsbL-0150_RLatLon0.09_PT048H.grib2 2026-05-06 02:55 409K
20260506T00Z_MSC_RDPS_RelativeHumidity_IsbL-0175_RLatLon0.09_PT048H.grib2 2026-05-06 02:55 461K
20260506T00Z_MSC_RDPS_RelativeHumidity_IsbL-0200_RLatLon0.09_PT048H.grib2 2026-05-06 02:55 533K
20260506T00Z_MSC_RDPS_RelativeHumidity_IsbL-0225_RLatLon0.09_PT048H.grib2 2026-05-06 02:55 597K
20260506T00Z_MSC_RDPS_RelativeHumidity_IsbL-0250_RLatLon0.09_PT048H.grib2 2026-05-06 02:55 662K
20260506T00Z_MSC_RDPS_RelativeHumidity_IsbL-0275_RLatLon0.09_PT048H.grib2 2026-05-06 02:55 691K
20260506T00Z_MSC_RDPS_RelativeHumidity_IsbL-0300_RLatLon0.09_PT048H.grib2 2026-05-06 02:55 737K
20260506T00Z_MSC_RDPS_RelativeHumidity_IsbL-0350_RLatLon0.09_PT048H.grib2 2026-05-06 02:55 761K
20260506T00Z_MSC_RDPS_RelativeHumidity_IsbL-0400_RLatLon0.09_PT048H.grib2 2026-05-06 02:55 780K
20260506T00Z_MSC_RDPS_RelativeHumidity_IsbL-0450_RLatLon0.09_PT048H.grib2 2026-05-06 02:55 790K
20260506T00Z_MSC_RDPS_RelativeHumidity_IsbL-0500_RLatLon0.09_PT048H.grib2 2026-05-06 02:55 803K
20260506T00Z_MSC_RDPS_RelativeHumidity_IsbL-0550_RLatLon0.09_PT048H.grib2 2026-05-06 02:55 822K
20260506T00Z_MSC_RDPS_RelativeHumidity_IsbL-0600_RLatLon0.09_PT048H.grib2 2026-05-06 02:55 845K
20260506T00Z_MSC_RDPS_RelativeHumidity_IsbL-0650_RLatLon0.09_PT048H.grib2 2026-05-06 02:55 854K
20260506T00Z_MSC_RDPS_RelativeHumidity_IsbL-0700_RLatLon0.09_PT048H.grib2 2026-05-06 02:55 889K
20260506T00Z_MSC_RDPS_RelativeHumidity_IsbL-0750_RLatLon0.09_PT048H.grib2 2026-05-06 02:55 934K
20260506T00Z_MSC_RDPS_RelativeHumidity_IsbL-0800_RLatLon0.09_PT048H.grib2 2026-05-06 02:55 1.0M
20260506T00Z_MSC_RDPS_RelativeHumidity_IsbL-0850_RLatLon0.09_PT048H.grib2 2026-05-06 02:55 1.0M
20260506T00Z_MSC_RDPS_RelativeHumidity_IsbL-0875_RLatLon0.09_PT048H.grib2 2026-05-06 02:55 1.1M
20260506T00Z_MSC_RDPS_RelativeHumidity_IsbL-0900_RLatLon0.09_PT048H.grib2 2026-05-06 02:55 1.1M
20260506T00Z_MSC_RDPS_RelativeHumidity_IsbL-0925_RLatLon0.09_PT048H.grib2 2026-05-06 02:55 1.1M
20260506T00Z_MSC_RDPS_RelativeHumidity_IsbL-0950_RLatLon0.09_PT048H.grib2 2026-05-06 02:55 1.1M
20260506T00Z_MSC_RDPS_RelativeHumidity_IsbL-0970_RLatLon0.09_PT048H.grib2 2026-05-06 02:55 1.0M
20260506T00Z_MSC_RDPS_RelativeHumidity_IsbL-0985_RLatLon0.09_PT048H.grib2 2026-05-06 02:55 1.0M
20260506T00Z_MSC_RDPS_RelativeHumidity_IsbL-1000_RLatLon0.09_PT048H.grib2 2026-05-06 02:55 1.0M
20260506T00Z_MSC_RDPS_RelativeHumidity_IsbL-1015_RLatLon0.09_PT048H.grib2 2026-05-06 02:55 1.0M
20260506T00Z_MSC_RDPS_Runoff-Accum_Sfc_RLatLon0.09_PT048H.grib2 2026-05-06 02:55 55K
20260506T00Z_MSC_RDPS_SWEATIndex_Sfc_RLatLon0.09_PT048H.grib2 2026-05-06 02:55 2.4M
20260506T00Z_MSC_RDPS_SeeingIndex_EAtm_RLatLon0.09_PT048H.grib2 2026-05-06 02:55 1.0M
20260506T00Z_MSC_RDPS_SensibleHeatNetFlux_Sfc_RLatLon0.09_PT048H.grib2 2026-05-06 02:55 314K
20260506T00Z_MSC_RDPS_ShowalterIndex_IsbL-0500_RLatLon0.09_PT048H.grib2 2026-05-06 02:55 2.6M
20260506T00Z_MSC_RDPS_SkyTransparencyIndex_EAtm_RLatLon0.09_PT048H.grib2 2026-05-06 02:55 735K
20260506T00Z_MSC_RDPS_Snow-Accum12h_Sfc_RLatLon0.09_PT048H.grib2 2026-05-06 02:55 597K
20260506T00Z_MSC_RDPS_Snow-Accum1h_Sfc_RLatLon0.09_PT048H.grib2 2026-05-06 02:55 425K
20260506T00Z_MSC_RDPS_Snow-Accum24h_Sfc_RLatLon0.09_PT048H.grib2 2026-05-06 02:55 627K
20260506T00Z_MSC_RDPS_Snow-Accum3h_Sfc_RLatLon0.09_PT048H.grib2 2026-05-06 02:55 429K
20260506T00Z_MSC_RDPS_Snow-Accum6h_Sfc_RLatLon0.09_PT048H.grib2 2026-05-06 02:55 550K
20260506T00Z_MSC_RDPS_Snow-Accum_Sfc_RLatLon0.09_PT048H.grib2 2026-05-06 02:55 753K
20260506T00Z_MSC_RDPS_SnowDensity_Sfc_RLatLon0.09_PT048H.grib2 2026-05-06 02:55 175K
20260506T00Z_MSC_RDPS_SnowDepth_Sfc_RLatLon0.09_PT048H.grib2 2026-05-06 02:55 640K
20260506T00Z_MSC_RDPS_SoilTemp_DBS-0to10cm_RLatLon0.09_PT048H.grib2 2026-05-06 02:55 241K
20260506T00Z_MSC_RDPS_SoilTemp_Sfc_RLatLon0.09_PT048H.grib2 2026-05-06 02:55 267K
20260506T00Z_MSC_RDPS_SoilVolumetricIceContent_Sfc_RLatLon0.09_PT048H.grib2 2026-05-06 02:55 148K
20260506T00Z_MSC_RDPS_SoilVolumetricWaterContent_DBS-0to10cm_RLatLon0.09_PT048H.grib2 2026-05-06 02:55 284K
20260506T00Z_MSC_RDPS_SoilVolumetricWaterContent_DBS-0to1cm_RLatLon0.09_PT048H.grib2 2026-05-06 02:55 343K
20260506T00Z_MSC_RDPS_SpecificHumidity_AGL-120m_RLatLon0.09_PT048H.grib2 2026-05-06 02:55 501K
20260506T00Z_MSC_RDPS_SpecificHumidity_AGL-2m_RLatLon0.09_PT048H.grib2 2026-05-06 02:55 675K
20260506T00Z_MSC_RDPS_SpecificHumidity_AGL-40m_RLatLon0.09_PT048H.grib2 2026-05-06 02:55 507K
20260506T00Z_MSC_RDPS_SpecificHumidity_AGL-80m_RLatLon0.09_PT048H.grib2 2026-05-06 02:55 502K
20260506T00Z_MSC_RDPS_SpecificHumidity_IsbL-0001_RLatLon0.09_PT048H.grib2 2026-05-06 02:55 369K
20260506T00Z_MSC_RDPS_SpecificHumidity_IsbL-0005_RLatLon0.09_PT048H.grib2 2026-05-06 02:55 373K
20260506T00Z_MSC_RDPS_SpecificHumidity_IsbL-0010_RLatLon0.09_PT048H.grib2 2026-05-06 02:55 409K
20260506T00Z_MSC_RDPS_SpecificHumidity_IsbL-0020_RLatLon0.09_PT048H.grib2 2026-05-06 02:55 494K
20260506T00Z_MSC_RDPS_SpecificHumidity_IsbL-0030_RLatLon0.09_PT048H.grib2 2026-05-06 02:55 369K
20260506T00Z_MSC_RDPS_SpecificHumidity_IsbL-0050_RLatLon0.09_PT048H.grib2 2026-05-06 02:55 475K
20260506T00Z_MSC_RDPS_SpecificHumidity_IsbL-0100_RLatLon0.09_PT048H.grib2 2026-05-06 02:55 444K
20260506T00Z_MSC_RDPS_SpecificHumidity_IsbL-0150_RLatLon0.09_PT048H.grib2 2026-05-06 02:55 453K
20260506T00Z_MSC_RDPS_SpecificHumidity_IsbL-0175_RLatLon0.09_PT048H.grib2 2026-05-06 02:55 432K
20260506T00Z_MSC_RDPS_SpecificHumidity_IsbL-0200_RLatLon0.09_PT048H.grib2 2026-05-06 02:55 463K
20260506T00Z_MSC_RDPS_SpecificHumidity_IsbL-0225_RLatLon0.09_PT048H.grib2 2026-05-06 02:55 460K
20260506T00Z_MSC_RDPS_SpecificHumidity_IsbL-0250_RLatLon0.09_PT048H.grib2 2026-05-06 02:55 545K
20260506T00Z_MSC_RDPS_SpecificHumidity_IsbL-0275_RLatLon0.09_PT048H.grib2 2026-05-06 02:55 463K
20260506T00Z_MSC_RDPS_SpecificHumidity_IsbL-0300_RLatLon0.09_PT048H.grib2 2026-05-06 02:55 562K
20260506T00Z_MSC_RDPS_SpecificHumidity_IsbL-0350_RLatLon0.09_PT048H.grib2 2026-05-06 02:55 557K
20260506T00Z_MSC_RDPS_SpecificHumidity_IsbL-0400_RLatLon0.09_PT048H.grib2 2026-05-06 02:55 515K
20260506T00Z_MSC_RDPS_SpecificHumidity_IsbL-0450_RLatLon0.09_PT048H.grib2 2026-05-06 02:55 570K
20260506T00Z_MSC_RDPS_SpecificHumidity_IsbL-0500_RLatLon0.09_PT048H.grib2 2026-05-06 02:55 511K
20260506T00Z_MSC_RDPS_SpecificHumidity_IsbL-0550_RLatLon0.09_PT048H.grib2 2026-05-06 02:55 586K
20260506T00Z_MSC_RDPS_SpecificHumidity_IsbL-0600_RLatLon0.09_PT048H.grib2 2026-05-06 02:55 641K
20260506T00Z_MSC_RDPS_SpecificHumidity_IsbL-0650_RLatLon0.09_PT048H.grib2 2026-05-06 02:55 559K
20260506T00Z_MSC_RDPS_SpecificHumidity_IsbL-0700_RLatLon0.09_PT048H.grib2 2026-05-06 02:55 605K
20260506T00Z_MSC_RDPS_SpecificHumidity_IsbL-0750_RLatLon0.09_PT048H.grib2 2026-05-06 02:55 677K
20260506T00Z_MSC_RDPS_SpecificHumidity_IsbL-0800_RLatLon0.09_PT048H.grib2 2026-05-06 02:55 748K
20260506T00Z_MSC_RDPS_SpecificHumidity_IsbL-0850_RLatLon0.09_PT048H.grib2 2026-05-06 02:55 821K
20260506T00Z_MSC_RDPS_SpecificHumidity_IsbL-0875_RLatLon0.09_PT048H.grib2 2026-05-06 02:55 706K
20260506T00Z_MSC_RDPS_SpecificHumidity_IsbL-0900_RLatLon0.09_PT048H.grib2 2026-05-06 02:55 721K
20260506T00Z_MSC_RDPS_SpecificHumidity_IsbL-0925_RLatLon0.09_PT048H.grib2 2026-05-06 02:55 726K
20260506T00Z_MSC_RDPS_SpecificHumidity_IsbL-0950_RLatLon0.09_PT048H.grib2 2026-05-06 02:55 723K
20260506T00Z_MSC_RDPS_SpecificHumidity_IsbL-0970_RLatLon0.09_PT048H.grib2 2026-05-06 02:55 714K
20260506T00Z_MSC_RDPS_SpecificHumidity_IsbL-0985_RLatLon0.09_PT048H.grib2 2026-05-06 02:55 706K
20260506T00Z_MSC_RDPS_SpecificHumidity_IsbL-1000_RLatLon0.09_PT048H.grib2 2026-05-06 02:55 699K
20260506T00Z_MSC_RDPS_SpecificHumidity_IsbL-1015_RLatLon0.09_PT048H.grib2 2026-05-06 02:55 689K
20260506T00Z_MSC_RDPS_SpecificHumidity_Sfc_RLatLon0.09_PT048H.grib2 2026-05-06 02:55 344K
20260506T00Z_MSC_RDPS_StormRelativeHelicity_EtaL-10000_RLatLon0.09_PT048H.grib2 2026-05-06 02:55 1.2M
20260506T00Z_MSC_RDPS_StormSeverityIndex_EtaL-10000_RLatLon0.09_PT048H.grib2 2026-05-06 02:55 1.1M
20260506T00Z_MSC_RDPS_Thickness_IsbL-0850to0700_RLatLon0.09_PT048H.grib2 2026-05-06 02:55 172K
20260506T00Z_MSC_RDPS_Thickness_IsbL-1000to0500_RLatLon0.09_PT048H.grib2 2026-05-06 02:55 192K
20260506T00Z_MSC_RDPS_Thickness_IsbL-1000to0850_RLatLon0.09_PT048H.grib2 2026-05-06 02:55 181K
20260506T00Z_MSC_RDPS_TotalCloudCover_Sfc_RLatLon0.09_PT048H.grib2 2026-05-06 02:55 660K
20260506T00Z_MSC_RDPS_TotalTotalsIndex_Sfc_RLatLon0.09_PT048H.grib2 2026-05-06 02:55 2.4M
20260506T00Z_MSC_RDPS_UVIndex-ClearSky_Sfc_RLatLon0.09_PT048H.grib2 2026-05-06 02:55 194K
20260506T00Z_MSC_RDPS_UVIndex_Sfc_RLatLon0.09_PT048H.grib2 2026-05-06 02:55 405K
20260506T00Z_MSC_RDPS_UpwardLongwaveRadiationFlux_NTAtm_RLatLon0.09_PT048H.grib2 2026-05-06 02:55 491K
20260506T00Z_MSC_RDPS_UpwardShortwaveRadiationFlux_NTAtm_RLatLon0.09_PT048H.grib2 2026-05-06 02:55 345K
20260506T00Z_MSC_RDPS_VerticalVelocity_IsbL-0250_RLatLon0.09_PT048H.grib2 2026-05-06 02:55 570K
20260506T00Z_MSC_RDPS_VerticalVelocity_IsbL-0500_RLatLon0.09_PT048H.grib2 2026-05-06 02:55 531K
20260506T00Z_MSC_RDPS_VerticalVelocity_IsbL-0700_RLatLon0.09_PT048H.grib2 2026-05-06 02:55 587K
20260506T00Z_MSC_RDPS_VerticalVelocity_IsbL-0850_RLatLon0.09_PT048H.grib2 2026-05-06 02:55 684K
20260506T00Z_MSC_RDPS_VerticalWindShear_EtaL-6500_RLatLon0.09_PT048H.grib2 2026-05-06 02:55 1.2M
20260506T00Z_MSC_RDPS_WindChill_Sfc_RLatLon0.09_PT048H.grib2 2026-05-06 02:55 1.2M
20260506T00Z_MSC_RDPS_WindDir_AGL-10m_RLatLon0.09_PT048H.grib2 2026-05-06 02:55 966K
20260506T00Z_MSC_RDPS_WindDir_AGL-120m_RLatLon0.09_PT048H.grib2 2026-05-06 02:55 612K
20260506T00Z_MSC_RDPS_WindDir_AGL-40m_RLatLon0.09_PT048H.grib2 2026-05-06 02:55 636K
20260506T00Z_MSC_RDPS_WindDir_AGL-80m_RLatLon0.09_PT048H.grib2 2026-05-06 02:55 621K
20260506T00Z_MSC_RDPS_WindDir_IsbL-0001_RLatLon0.09_PT048H.grib2 2026-05-06 02:55 300K
20260506T00Z_MSC_RDPS_WindDir_IsbL-0005_RLatLon0.09_PT048H.grib2 2026-05-06 02:55 378K
20260506T00Z_MSC_RDPS_WindDir_IsbL-0010_RLatLon0.09_PT048H.grib2 2026-05-06 02:55 386K
20260506T00Z_MSC_RDPS_WindDir_IsbL-0020_RLatLon0.09_PT048H.grib2 2026-05-06 02:55 421K
20260506T00Z_MSC_RDPS_WindDir_IsbL-0030_RLatLon0.09_PT048H.grib2 2026-05-06 02:55 414K
20260506T00Z_MSC_RDPS_WindDir_IsbL-0050_RLatLon0.09_PT048H.grib2 2026-05-06 02:55 444K
20260506T00Z_MSC_RDPS_WindDir_IsbL-0100_RLatLon0.09_PT048H.grib2 2026-05-06 02:55 408K
20260506T00Z_MSC_RDPS_WindDir_IsbL-0150_RLatLon0.09_PT048H.grib2 2026-05-06 02:55 415K
20260506T00Z_MSC_RDPS_WindDir_IsbL-0175_RLatLon0.09_PT048H.grib2 2026-05-06 02:55 437K
20260506T00Z_MSC_RDPS_WindDir_IsbL-0200_RLatLon0.09_PT048H.grib2 2026-05-06 02:55 454K
20260506T00Z_MSC_RDPS_WindDir_IsbL-0225_RLatLon0.09_PT048H.grib2 2026-05-06 02:55 459K
20260506T00Z_MSC_RDPS_WindDir_IsbL-0250_RLatLon0.09_PT048H.grib2 2026-05-06 02:55 451K
20260506T00Z_MSC_RDPS_WindDir_IsbL-0275_RLatLon0.09_PT048H.grib2 2026-05-06 02:55 467K
20260506T00Z_MSC_RDPS_WindDir_IsbL-0300_RLatLon0.09_PT048H.grib2 2026-05-06 02:55 465K
20260506T00Z_MSC_RDPS_WindDir_IsbL-0350_RLatLon0.09_PT048H.grib2 2026-05-06 02:55 488K
20260506T00Z_MSC_RDPS_WindDir_IsbL-0400_RLatLon0.09_PT048H.grib2 2026-05-06 02:55 506K
20260506T00Z_MSC_RDPS_WindDir_IsbL-0450_RLatLon0.09_PT048H.grib2 2026-05-06 02:55 527K
20260506T00Z_MSC_RDPS_WindDir_IsbL-0500_RLatLon0.09_PT048H.grib2 2026-05-06 02:55 554K
20260506T00Z_MSC_RDPS_WindDir_IsbL-0550_RLatLon0.09_PT048H.grib2 2026-05-06 02:55 569K
20260506T00Z_MSC_RDPS_WindDir_IsbL-0600_RLatLon0.09_PT048H.grib2 2026-05-06 02:55 595K
20260506T00Z_MSC_RDPS_WindDir_IsbL-0650_RLatLon0.09_PT048H.grib2 2026-05-06 02:55 633K
20260506T00Z_MSC_RDPS_WindDir_IsbL-0700_RLatLon0.09_PT048H.grib2 2026-05-06 02:55 681K
20260506T00Z_MSC_RDPS_WindDir_IsbL-0750_RLatLon0.09_PT048H.grib2 2026-05-06 02:55 731K
20260506T00Z_MSC_RDPS_WindDir_IsbL-0800_RLatLon0.09_PT048H.grib2 2026-05-06 02:55 793K
20260506T00Z_MSC_RDPS_WindDir_IsbL-0850_RLatLon0.09_PT048H.grib2 2026-05-06 02:55 861K
20260506T00Z_MSC_RDPS_WindDir_IsbL-0875_RLatLon0.09_PT048H.grib2 2026-05-06 02:55 885K
20260506T00Z_MSC_RDPS_WindDir_IsbL-0900_RLatLon0.09_PT048H.grib2 2026-05-06 02:55 903K
20260506T00Z_MSC_RDPS_WindDir_IsbL-0925_RLatLon0.09_PT048H.grib2 2026-05-06 02:55 916K
20260506T00Z_MSC_RDPS_WindDir_IsbL-0950_RLatLon0.09_PT048H.grib2 2026-05-06 02:55 919K
20260506T00Z_MSC_RDPS_WindDir_IsbL-0970_RLatLon0.09_PT048H.grib2 2026-05-06 02:55 921K
20260506T00Z_MSC_RDPS_WindDir_IsbL-0985_RLatLon0.09_PT048H.grib2 2026-05-06 02:55 928K
20260506T00Z_MSC_RDPS_WindDir_IsbL-1000_RLatLon0.09_PT048H.grib2 2026-05-06 02:55 942K
20260506T00Z_MSC_RDPS_WindDir_IsbL-1015_RLatLon0.09_PT048H.grib2 2026-05-06 02:55 959K
20260506T00Z_MSC_RDPS_WindGust-Max_AGL-10m_RLatLon0.09_PT048H.grib2 2026-05-06 02:55 1.0M
20260506T00Z_MSC_RDPS_WindGust-Min_AGL-10m_RLatLon0.09_PT048H.grib2 2026-05-06 02:55 968K
20260506T00Z_MSC_RDPS_WindGust_AGL-10m_RLatLon0.09_PT048H.grib2 2026-05-06 02:55 1.0M
20260506T00Z_MSC_RDPS_WindSpeed_AGL-10m_RLatLon0.09_PT048H.grib2 2026-05-06 02:55 829K
20260506T00Z_MSC_RDPS_WindSpeed_AGL-120m_RLatLon0.09_PT048H.grib2 2026-05-06 02:55 526K
20260506T00Z_MSC_RDPS_WindSpeed_AGL-40m_RLatLon0.09_PT048H.grib2 2026-05-06 02:55 660K
20260506T00Z_MSC_RDPS_WindSpeed_AGL-80m_RLatLon0.09_PT048H.grib2 2026-05-06 02:55 527K
20260506T00Z_MSC_RDPS_WindSpeed_IsbL-0001_RLatLon0.09_PT048H.grib2 2026-05-06 02:55 334K
20260506T00Z_MSC_RDPS_WindSpeed_IsbL-0005_RLatLon0.09_PT048H.grib2 2026-05-06 02:55 293K
20260506T00Z_MSC_RDPS_WindSpeed_IsbL-0010_RLatLon0.09_PT048H.grib2 2026-05-06 02:55 398K
20260506T00Z_MSC_RDPS_WindSpeed_IsbL-0020_RLatLon0.09_PT048H.grib2 2026-05-06 02:55 421K
20260506T00Z_MSC_RDPS_WindSpeed_IsbL-0030_RLatLon0.09_PT048H.grib2 2026-05-06 02:55 319K
20260506T00Z_MSC_RDPS_WindSpeed_IsbL-0050_RLatLon0.09_PT048H.grib2 2026-05-06 02:55 346K
20260506T00Z_MSC_RDPS_WindSpeed_IsbL-0100_RLatLon0.09_PT048H.grib2 2026-05-06 02:55 430K
20260506T00Z_MSC_RDPS_WindSpeed_IsbL-0150_RLatLon0.09_PT048H.grib2 2026-05-06 02:55 373K
20260506T00Z_MSC_RDPS_WindSpeed_IsbL-0175_RLatLon0.09_PT048H.grib2 2026-05-06 02:55 421K
20260506T00Z_MSC_RDPS_WindSpeed_IsbL-0200_RLatLon0.09_PT048H.grib2 2026-05-06 02:55 437K
20260506T00Z_MSC_RDPS_WindSpeed_IsbL-0225_RLatLon0.09_PT048H.grib2 2026-05-06 02:55 440K
20260506T00Z_MSC_RDPS_WindSpeed_IsbL-0250_RLatLon0.09_PT048H.grib2 2026-05-06 02:55 440K
20260506T00Z_MSC_RDPS_WindSpeed_IsbL-0275_RLatLon0.09_PT048H.grib2 2026-05-06 02:55 455K
20260506T00Z_MSC_RDPS_WindSpeed_IsbL-0300_RLatLon0.09_PT048H.grib2 2026-05-06 02:55 453K
20260506T00Z_MSC_RDPS_WindSpeed_IsbL-0350_RLatLon0.09_PT048H.grib2 2026-05-06 02:55 448K
20260506T00Z_MSC_RDPS_WindSpeed_IsbL-0400_RLatLon0.09_PT048H.grib2 2026-05-06 02:55 455K
20260506T00Z_MSC_RDPS_WindSpeed_IsbL-0450_RLatLon0.09_PT048H.grib2 2026-05-06 02:55 456K
20260506T00Z_MSC_RDPS_WindSpeed_IsbL-0500_RLatLon0.09_PT048H.grib2 2026-05-06 02:55 577K
20260506T00Z_MSC_RDPS_WindSpeed_IsbL-0550_RLatLon0.09_PT048H.grib2 2026-05-06 02:55 579K
20260506T00Z_MSC_RDPS_WindSpeed_IsbL-0600_RLatLon0.09_PT048H.grib2 2026-05-06 02:55 590K
20260506T00Z_MSC_RDPS_WindSpeed_IsbL-0650_RLatLon0.09_PT048H.grib2 2026-05-06 02:55 652K
20260506T00Z_MSC_RDPS_WindSpeed_IsbL-0700_RLatLon0.09_PT048H.grib2 2026-05-06 02:55 677K
20260506T00Z_MSC_RDPS_WindSpeed_IsbL-0750_RLatLon0.09_PT048H.grib2 2026-05-06 02:55 695K
20260506T00Z_MSC_RDPS_WindSpeed_IsbL-0800_RLatLon0.09_PT048H.grib2 2026-05-06 02:55 750K
20260506T00Z_MSC_RDPS_WindSpeed_IsbL-0850_RLatLon0.09_PT048H.grib2 2026-05-06 02:55 807K
20260506T00Z_MSC_RDPS_WindSpeed_IsbL-0875_RLatLon0.09_PT048H.grib2 2026-05-06 02:55 830K
20260506T00Z_MSC_RDPS_WindSpeed_IsbL-0900_RLatLon0.09_PT048H.grib2 2026-05-06 02:55 845K
20260506T00Z_MSC_RDPS_WindSpeed_IsbL-0925_RLatLon0.09_PT048H.grib2 2026-05-06 02:55 854K
20260506T00Z_MSC_RDPS_WindSpeed_IsbL-0950_RLatLon0.09_PT048H.grib2 2026-05-06 02:55 856K
20260506T00Z_MSC_RDPS_WindSpeed_IsbL-0970_RLatLon0.09_PT048H.grib2 2026-05-06 02:55 852K
20260506T00Z_MSC_RDPS_WindSpeed_IsbL-0985_RLatLon0.09_PT048H.grib2 2026-05-06 02:55 847K
20260506T00Z_MSC_RDPS_WindSpeed_IsbL-1000_RLatLon0.09_PT048H.grib2 2026-05-06 02:55 840K
20260506T00Z_MSC_RDPS_WindSpeed_IsbL-1015_RLatLon0.09_PT048H.grib2 2026-05-06 02:55 829K
20260506T00Z_MSC_RDPS_WindU_AGL-10m_RLatLon0.09_PT048H.grib2 2026-05-06 02:55 429K
20260506T00Z_MSC_RDPS_WindU_AGL-120m_RLatLon0.09_PT048H.grib2 2026-05-06 02:55 527K
20260506T00Z_MSC_RDPS_WindU_AGL-40m_RLatLon0.09_PT048H.grib2 2026-05-06 02:55 532K
20260506T00Z_MSC_RDPS_WindU_AGL-80m_RLatLon0.09_PT048H.grib2 2026-05-06 02:55 529K
20260506T00Z_MSC_RDPS_WindU_IsbL-0001_RLatLon0.09_PT048H.grib2 2026-05-06 02:55 244K
20260506T00Z_MSC_RDPS_WindU_IsbL-0005_RLatLon0.09_PT048H.grib2 2026-05-06 02:55 287K
20260506T00Z_MSC_RDPS_WindU_IsbL-0010_RLatLon0.09_PT048H.grib2 2026-05-06 02:55 299K
20260506T00Z_MSC_RDPS_WindU_IsbL-0020_RLatLon0.09_PT048H.grib2 2026-05-06 02:55 317K
20260506T00Z_MSC_RDPS_WindU_IsbL-0030_RLatLon0.09_PT048H.grib2 2026-05-06 02:55 313K
20260506T00Z_MSC_RDPS_WindU_IsbL-0050_RLatLon0.09_PT048H.grib2 2026-05-06 02:55 375K
20260506T00Z_MSC_RDPS_WindU_IsbL-0100_RLatLon0.09_PT048H.grib2 2026-05-06 02:55 424K
20260506T00Z_MSC_RDPS_WindU_IsbL-0150_RLatLon0.09_PT048H.grib2 2026-05-06 02:55 392K
20260506T00Z_MSC_RDPS_WindU_IsbL-0175_RLatLon0.09_PT048H.grib2 2026-05-06 02:55 415K
20260506T00Z_MSC_RDPS_WindU_IsbL-0200_RLatLon0.09_PT048H.grib2 2026-05-06 02:55 430K
20260506T00Z_MSC_RDPS_WindU_IsbL-0225_RLatLon0.09_PT048H.grib2 2026-05-06 02:55 335K
20260506T00Z_MSC_RDPS_WindU_IsbL-0250_RLatLon0.09_PT048H.grib2 2026-05-06 02:55 333K
20260506T00Z_MSC_RDPS_WindU_IsbL-0275_RLatLon0.09_PT048H.grib2 2026-05-06 02:55 346K
20260506T00Z_MSC_RDPS_WindU_IsbL-0300_RLatLon0.09_PT048H.grib2 2026-05-06 02:55 342K
20260506T00Z_MSC_RDPS_WindU_IsbL-0350_RLatLon0.09_PT048H.grib2 2026-05-06 02:55 352K
20260506T00Z_MSC_RDPS_WindU_IsbL-0400_RLatLon0.09_PT048H.grib2 2026-05-06 02:55 458K
20260506T00Z_MSC_RDPS_WindU_IsbL-0450_RLatLon0.09_PT048H.grib2 2026-05-06 02:55 460K
20260506T00Z_MSC_RDPS_WindU_IsbL-0500_RLatLon0.09_PT048H.grib2 2026-05-06 02:55 464K
20260506T00Z_MSC_RDPS_WindU_IsbL-0550_RLatLon0.09_PT048H.grib2 2026-05-06 02:55 468K
20260506T00Z_MSC_RDPS_WindU_IsbL-0600_RLatLon0.09_PT048H.grib2 2026-05-06 02:55 460K
20260506T00Z_MSC_RDPS_WindU_IsbL-0650_RLatLon0.09_PT048H.grib2 2026-05-06 02:55 479K
20260506T00Z_MSC_RDPS_WindU_IsbL-0700_RLatLon0.09_PT048H.grib2 2026-05-06 02:55 503K
20260506T00Z_MSC_RDPS_WindU_IsbL-0750_RLatLon0.09_PT048H.grib2 2026-05-06 02:55 528K
20260506T00Z_MSC_RDPS_WindU_IsbL-0800_RLatLon0.09_PT048H.grib2 2026-05-06 02:55 694K
20260506T00Z_MSC_RDPS_WindU_IsbL-0850_RLatLon0.09_PT048H.grib2 2026-05-06 02:55 749K
20260506T00Z_MSC_RDPS_WindU_IsbL-0875_RLatLon0.09_PT048H.grib2 2026-05-06 02:55 770K
20260506T00Z_MSC_RDPS_WindU_IsbL-0900_RLatLon0.09_PT048H.grib2 2026-05-06 02:55 784K
20260506T00Z_MSC_RDPS_WindU_IsbL-0925_RLatLon0.09_PT048H.grib2 2026-05-06 02:55 794K
20260506T00Z_MSC_RDPS_WindU_IsbL-0950_RLatLon0.09_PT048H.grib2 2026-05-06 02:55 793K
20260506T00Z_MSC_RDPS_WindU_IsbL-0970_RLatLon0.09_PT048H.grib2 2026-05-06 02:55 789K
20260506T00Z_MSC_RDPS_WindU_IsbL-0985_RLatLon0.09_PT048H.grib2 2026-05-06 02:55 785K
20260506T00Z_MSC_RDPS_WindU_IsbL-1000_RLatLon0.09_PT048H.grib2 2026-05-06 02:55 780K
20260506T00Z_MSC_RDPS_WindU_IsbL-1015_RLatLon0.09_PT048H.grib2 2026-05-06 02:55 820K
20260506T00Z_MSC_RDPS_WindV_AGL-10m_RLatLon0.09_PT048H.grib2 2026-05-06 02:55 425K
20260506T00Z_MSC_RDPS_WindV_AGL-120m_RLatLon0.09_PT048H.grib2 2026-05-06 02:55 523K
20260506T00Z_MSC_RDPS_WindV_AGL-40m_RLatLon0.09_PT048H.grib2 2026-05-06 02:55 526K
20260506T00Z_MSC_RDPS_WindV_AGL-80m_RLatLon0.09_PT048H.grib2 2026-05-06 02:55 525K
20260506T00Z_MSC_RDPS_WindV_IsbL-0001_RLatLon0.09_PT048H.grib2 2026-05-06 02:55 246K
20260506T00Z_MSC_RDPS_WindV_IsbL-0005_RLatLon0.09_PT048H.grib2 2026-05-06 02:55 287K
20260506T00Z_MSC_RDPS_WindV_IsbL-0010_RLatLon0.09_PT048H.grib2 2026-05-06 02:55 300K
20260506T00Z_MSC_RDPS_WindV_IsbL-0020_RLatLon0.09_PT048H.grib2 2026-05-06 02:55 317K
20260506T00Z_MSC_RDPS_WindV_IsbL-0030_RLatLon0.09_PT048H.grib2 2026-05-06 02:55 314K
20260506T00Z_MSC_RDPS_WindV_IsbL-0050_RLatLon0.09_PT048H.grib2 2026-05-06 02:55 339K
20260506T00Z_MSC_RDPS_WindV_IsbL-0100_RLatLon0.09_PT048H.grib2 2026-05-06 02:55 421K
20260506T00Z_MSC_RDPS_WindV_IsbL-0150_RLatLon0.09_PT048H.grib2 2026-05-06 02:55 389K
20260506T00Z_MSC_RDPS_WindV_IsbL-0175_RLatLon0.09_PT048H.grib2 2026-05-06 02:55 413K
20260506T00Z_MSC_RDPS_WindV_IsbL-0200_RLatLon0.09_PT048H.grib2 2026-05-06 02:55 333K
20260506T00Z_MSC_RDPS_WindV_IsbL-0225_RLatLon0.09_PT048H.grib2 2026-05-06 02:55 361K
20260506T00Z_MSC_RDPS_WindV_IsbL-0250_RLatLon0.09_PT048H.grib2 2026-05-06 02:55 359K
20260506T00Z_MSC_RDPS_WindV_IsbL-0275_RLatLon0.09_PT048H.grib2 2026-05-06 02:55 370K
20260506T00Z_MSC_RDPS_WindV_IsbL-0300_RLatLon0.09_PT048H.grib2 2026-05-06 02:55 367K
20260506T00Z_MSC_RDPS_WindV_IsbL-0350_RLatLon0.09_PT048H.grib2 2026-05-06 02:55 352K
20260506T00Z_MSC_RDPS_WindV_IsbL-0400_RLatLon0.09_PT048H.grib2 2026-05-06 02:55 357K
20260506T00Z_MSC_RDPS_WindV_IsbL-0450_RLatLon0.09_PT048H.grib2 2026-05-06 02:55 459K
20260506T00Z_MSC_RDPS_WindV_IsbL-0500_RLatLon0.09_PT048H.grib2 2026-05-06 02:55 463K
20260506T00Z_MSC_RDPS_WindV_IsbL-0550_RLatLon0.09_PT048H.grib2 2026-05-06 02:55 466K
20260506T00Z_MSC_RDPS_WindV_IsbL-0600_RLatLon0.09_PT048H.grib2 2026-05-06 02:55 475K
20260506T00Z_MSC_RDPS_WindV_IsbL-0650_RLatLon0.09_PT048H.grib2 2026-05-06 02:55 493K
20260506T00Z_MSC_RDPS_WindV_IsbL-0700_RLatLon0.09_PT048H.grib2 2026-05-06 02:55 498K
20260506T00Z_MSC_RDPS_WindV_IsbL-0750_RLatLon0.09_PT048H.grib2 2026-05-06 02:55 523K
20260506T00Z_MSC_RDPS_WindV_IsbL-0800_RLatLon0.09_PT048H.grib2 2026-05-06 02:55 560K
20260506T00Z_MSC_RDPS_WindV_IsbL-0850_RLatLon0.09_PT048H.grib2 2026-05-06 02:55 609K
20260506T00Z_MSC_RDPS_WindV_IsbL-0875_RLatLon0.09_PT048H.grib2 2026-05-06 02:55 629K
20260506T00Z_MSC_RDPS_WindV_IsbL-0900_RLatLon0.09_PT048H.grib2 2026-05-06 02:55 643K
20260506T00Z_MSC_RDPS_WindV_IsbL-0925_RLatLon0.09_PT048H.grib2 2026-05-06 02:55 653K
20260506T00Z_MSC_RDPS_WindV_IsbL-0950_RLatLon0.09_PT048H.grib2 2026-05-06 02:55 652K
20260506T00Z_MSC_RDPS_WindV_IsbL-0970_RLatLon0.09_PT048H.grib2 2026-05-06 02:55 787K
20260506T00Z_MSC_RDPS_WindV_IsbL-0985_RLatLon0.09_PT048H.grib2 2026-05-06 02:55 780K
20260506T00Z_MSC_RDPS_WindV_IsbL-1000_RLatLon0.09_PT048H.grib2 2026-05-06 02:55 819K
20260506T00Z_MSC_RDPS_WindV_IsbL-1015_RLatLon0.09_PT048H.grib2 2026-05-06 02:55 812K